| time (UTC) | temp F | wind direction | speed knots | gust knots | rain 1hr in | rain 24hr in | rain mn in | humidity % | barometer mb |
| 20260508110037 | 46 | 185 | 0.0 | 4.3 | 0.00 | 0.01 | 0.01 | 81 | 1012.5 |
| 20260508104537 | 46 | 0 | 0.9 | 7.8 | 0.00 | 0.01 | 0.01 | 79 | 1012.4 |
| 20260508103036 | 47 | 174 | 3.5 | 10.4 | 0.00 | 0.01 | 0.01 | 79 | 1012.1 |
| 20260508101540 | 47 | 232 | 0.9 | 7.0 | 0.00 | 0.01 | 0.01 | 77 | 1012.9 |
| 20260508100041 | 47 | 169 | 0.9 | 4.3 | 0.00 | 0.01 | 0.01 | 77 | 1012.4 |
| 20260508094539 | 46 | 275 | 0.0 | 2.6 | 0.00 | 0.01 | 0.01 | 79 | 1012.5 |
| 20260508093037 | 46 | 0 | 0.9 | 7.8 | 0.00 | 0.01 | 0.01 | 79 | 1012.5 |
| 20260508091540 | 45 | 172 | 0.0 | 5.2 | 0.00 | 0.01 | 0.01 | 79 | 1012.5 |
| 20260508090103 | 45 | 141 | 0.9 | 5.2 | 0.00 | 0.01 | 0.01 | 79 | 1012.8 |
| 20260508084544 | 45 | 0 | 0.9 | 6.1 | 0.00 | 0.01 | 0.01 | 79 | 1012.7 |
| 20260508083038 | 45 | 0 | 0.9 | 7.0 | 0.00 | 0.01 | 0.01 | 81 | 1012.6 |
| 20260508081548 | 44 | 0 | 0.0 | 4.3 | 0.00 | 0.01 | 0.01 | 81 | 1012.7 |
| 20260508080040 | 44 | 0 | 0.9 | 4.3 | 0.00 | 0.01 | 0.01 | 81 | 1012.8 |
| 20260508074543 | 45 | 175 | 0.9 | 4.3 | 0.01 | 0.01 | 0.01 | 81 | 1012.8 |
| 20260508073047 | 45 | 0 | 0.0 | 5.2 | 0.01 | 0.01 | 0.01 | 81 | 1013.0 |
| 20260508070036 | 46 | 199 | 1.7 | 8.7 | 0.01 | 0.01 | 0.01 | 79 | 1013.1 |
| 20260508064539 | 48 | 121 | 2.6 | 8.7 | 0.00 | 0.00 | 0.00 | 72 | 1013.3 |
| 20260508063039 | 47 | 192 | 1.7 | 8.7 | 0.00 | 0.00 | 0.00 | 68 | 1013.1 |
| 20260508061542 | 47 | 0 | 0.0 | 6.1 | 0.00 | 0.00 | 0.00 | 68 | 1013.2 |
| 20260508060049 | 46 | 182 | 0.0 | 3.5 | 0.00 | 0.00 | 0.00 | 70 | 1013.2 |
| 20260508054541 | 46 | 175 | 0.0 | 4.3 | 0.00 | 0.00 | 0.00 | 71 | 1013.3 |
| 20260508053039 | 46 | 0 | 0.0 | 2.6 | 0.00 | 0.00 | 0.00 | 70 | 1013.4 |
| 20260508051555 | 47 | 188 | 0.0 | 1.7 | 0.00 | 0.00 | 0.00 | 69 | 1013.6 |
| 20260508050038 | 47 | 0 | 0.0 | 1.7 | 0.00 | 0.00 | 0.00 | 68 | 1013.6 |
| 20260508044543 | 47 | 0 | 0.0 | 1.7 | 0.00 | 0.00 | 0.00 | 66 | 1013.6 |
| 20260508043042 | 48 | 0 | 0.0 | 1.7 | 0.00 | 0.00 | 0.00 | 66 | 1013.6 |
| 20260508041539 | 48 | 0 | 0.0 | 4.3 | 0.00 | 0.00 | 0.00 | 64 | 1013.6 |
| 20260508040049 | 48 | 0 | 0.0 | 7.0 | 0.00 | 0.00 | 0.00 | 64 | 1013.8 |
| 20260508034546 | 48 | 0 | 0.0 | 5.2 | 0.00 | 0.00 | 0.00 | 64 | 1013.8 |
| 20260508033045 | 48 | 0 | 0.9 | 7.0 | 0.00 | 0.00 | 0.00 | 63 | 1013.9 |
| 20260508031541 | 47 | 199 | 1.7 | 7.8 | 0.00 | 0.00 | 0.00 | 63 | 1013.9 |
| 20260508030040 | 46 | 0 | 0.0 | 3.5 | 0.00 | 0.00 | 0.00 | 64 | 1014.0 |
| 20260508024558 | 46 | 0 | 0.0 | 5.2 | 0.00 | 0.00 | 0.00 | 66 | 1014.0 |
| 20260508023040 | 46 | 0 | 0.0 | 0.0 | 0.00 | 0.00 | 0.00 | 68 | 1013.8 |
| 20260508021538 | 46 | 0 | 0.0 | 0.0 | 0.00 | 0.00 | 0.00 | 68 | 1013.6 |
| 20260508020046 | 47 | 0 | 0.0 | 0.0 | 0.00 | 0.00 | 0.00 | 66 | 1013.5 |
| 20260508014543 | 47 | 0 | 0.0 | 0.0 | 0.00 | 0.00 | 0.00 | 66 | 1013.4 |
| 20260508013037 | 47 | 0 | 0.0 | 0.0 | 0.00 | 0.00 | 0.00 | 65 | 1013.4 |
| 20260508011539 | 48 | 0 | 0.0 | 0.0 | 0.00 | 0.00 | 0.00 | 61 | 1013.3 |
| 20260508010049 | 48 | 0 | 0.0 | 0.0 | 0.00 | 0.00 | 0.00 | 57 | 1013.2 |
| 20260508004546 | 50 | 0 | 0.0 | 0.0 | 0.00 | 0.00 | 0.00 | 54 | 1013.1 |
| 20260508003038 | 51 | 0 | 0.0 | 0.9 | 0.00 | 0.00 | 0.00 | 51 | 1013.1 |
| 20260508001543 | 52 | 0 | 0.0 | 3.5 | 0.00 | 0.00 | 0.00 | 49 | 1013.0 |
| 20260508000041 | 52 | 0 | 0.0 | 7.0 | 0.00 | 0.00 | 0.00 | 48 | 1012.8 |
| 20260507234538 | 53 | 0 | 0.0 | 5.2 | 0.00 | 0.00 | 0.00 | 47 | 1012.8 |
| 20260507233037 | 53 | 344 | 1.7 | 7.8 | 0.00 | 0.00 | 0.00 | 46 | 1012.7 |
| 20260507231542 | 53 | 343 | 0.9 | 5.2 | 0.00 | 0.00 | 0.00 | 44 | 1012.7 |
| 20260507230042 | 54 | 0 | 0.9 | 8.7 | 0.00 | 0.00 | 0.00 | 45 | 1012.8 |
| 20260507224537 | 54 | 337 | 0.9 | 9.6 | 0.00 | 0.00 | 0.00 | 45 | 1013.0 |
| 20260507223041 | 54 | 247 | 1.7 | 8.7 | 0.00 | 0.00 | 0.00 | 46 | 1012.8 |
| 20260507221542 | 54 | 273 | 0.9 | 9.6 | 0.00 | 0.00 | 0.00 | 47 | 1012.8 |
| 20260507220037 | 54 | 355 | 0.9 | 6.1 | 0.00 | 0.00 | 0.00 | 45 | 1012.8 |
| 20260507214537 | 53 | 355 | 1.7 | 10.4 | 0.00 | 0.00 | 0.00 | 49 | 1012.6 |
| 20260507213037 | 54 | 298 | 1.7 | 9.6 | 0.00 | 0.00 | 0.00 | 49 | 1012.5 |
| 20260507211537 | 54 | 318 | 0.9 | 10.4 | 0.00 | 0.00 | 0.00 | 49 | 1012.4 |
| 20260507210046 | 55 | 261 | 2.6 | 12.2 | 0.00 | 0.00 | 0.00 | 46 | 1012.2 |
| 20260507204538 | 56 | 274 | 2.6 | 14.8 | 0.00 | 0.00 | 0.00 | 43 | 1012.2 |
| 20260507203105 | 55 | 266 | 4.3 | 15.6 | 0.00 | 0.00 | 0.00 | 43 | 1012.2 |
| 20260507201537 | 55 | 231 | 2.6 | 13.9 | 0.00 | 0.00 | 0.00 | 48 | 1012.2 |
| 20260507200037 | 55 | 277 | 1.7 | 12.2 | 0.00 | 0.00 | 0.00 | 50 | 1012.1 |
| 20260507194536 | 56 | 329 | 1.7 | 10.4 | 0.00 | 0.00 | 0.00 | 47 | 1012.2 |
| 20260507193040 | 57 | 270 | 2.6 | 14.8 | 0.00 | 0.00 | 0.00 | 43 | 1012.3 |
| 20260507191539 | 55 | 272 | 0.9 | 10.4 | 0.00 | 0.00 | 0.00 | 49 | 1012.4 |
| 20260507190045 | 58 | 184 | 3.5 | 11.3 | 0.00 | 0.00 | 0.00 | 49 | 1012.5 |
| 20260507184537 | 57 | 350 | 2.6 | 10.4 | 0.00 | 0.00 | 0.00 | 44 | 1012.4 |
| 20260507183036 | 56 | 283 | 2.6 | 11.3 | 0.00 | 0.00 | 0.00 | 45 | 1012.5 |
| 20260507181537 | 56 | 284 | 1.7 | 7.8 | 0.00 | 0.00 | 0.00 | 45 | 1012.6 |
| 20260507180042 | 56 | 0 | 0.9 | 8.7 | 0.00 | 0.00 | 0.00 | 45 | 1012.6 |
| 20260507174544 | 55 | 223 | 2.6 | 11.3 | 0.00 | 0.00 | 0.00 | 45 | 1012.7 |
| 20260507173108 | 55 | 215 | 2.6 | 11.3 | 0.00 | 0.00 | 0.00 | 46 | 1012.8 |
| 20260507171542 | 55 | 303 | 1.7 | 7.0 | 0.00 | 0.00 | 0.00 | 47 | 1012.9 |
| 20260507170039 | 55 | 258 | 1.7 | 9.6 | 0.00 | 0.00 | 0.00 | 47 | 1012.8 |
| 20260507164537 | 55 | 0 | 0.9 | 9.6 | 0.00 | 0.00 | 0.00 | 44 | 1012.8 |
| 20260507163041 | 54 | 250 | 0.0 | 10.4 | 0.00 | 0.00 | 0.00 | 49 | 1012.8 |
| 20260507161545 | 54 | 236 | 1.7 | 10.4 | 0.00 | 0.00 | 0.00 | 49 | 1013.0 |
| 20260507160041 | 53 | 309 | 1.7 | 7.8 | 0.00 | 0.00 | 0.00 | 50 | 1013.1 |
| 20260507154538 | 56 | 213 | 1.7 | 7.8 | 0.00 | 0.00 | 0.00 | 52 | 1013.0 |
| 20260507153037 | 55 | 211 | 2.6 | 9.6 | 0.00 | 0.00 | 0.00 | 52 | 1012.9 |
| 20260507151540 | 55 | 314 | 1.7 | 9.6 | 0.00 | 0.00 | 0.00 | 53 | 1013.0 |
| 20260507150043 | 53 | 254 | 1.7 | 7.0 | 0.00 | 0.00 | 0.00 | 55 | 1013.1 |
| 20260507144538 | 53 | 250 | 1.7 | 7.0 | 0.00 | 0.00 | 0.00 | 56 | 1013.2 |
| 20260507143048 | 52 | 19 | 0.9 | 6.1 | 0.00 | 0.00 | 0.00 | 58 | 1013.1 |
| 20260507141548 | 52 | 261 | 0.9 | 7.8 | 0.00 | 0.00 | 0.00 | 60 | 1013.3 |
| 20260507140037 | 51 | 0 | 0.0 | 4.3 | 0.00 | 0.00 | 0.00 | 61 | 1013.4 |
| 20260507134544 | 50 | 0 | 0.9 | 6.1 | 0.00 | 0.00 | 0.00 | 67 | 1013.5 |
| 20260507133108 | 48 | 240 | 0.0 | 3.5 | 0.00 | 0.00 | 0.00 | 68 | 1013.7 |
| 20260507131543 | 47 | 230 | 0.0 | 3.5 | 0.00 | 0.00 | 0.00 | 72 | 1013.7 |
| 20260507130048 | 47 | 319 | 0.9 | 7.8 | 0.00 | 0.00 | 0.00 | 72 | 1013.8 |
| 20260507124537 | 47 | 333 | 2.6 | 7.0 | 0.00 | 0.00 | 0.00 | 74 | 1013.8 |
| 20260507123040 | 46 | 223 | 0.0 | 5.2 | 0.00 | 0.00 | 0.00 | 74 | 1013.7 |
| 20260507121534 | 45 | 0 | 0.0 | 2.6 | 0.00 | 0.00 | 0.00 | 77 | 1013.6 |
| 20260507120039 | 44 | 0 | 0.9 | 6.1 | 0.00 | 0.00 | 0.00 | 77 | 1013.4 |
| 20260507114549 | 44 | 0 | 0.9 | 5.2 | 0.00 | 0.00 | 0.00 | 78 | 1013.5 |
| 20260507113039 | 42 | 0 | 0.0 | 3.5 | 0.00 | 0.00 | 0.00 | 80 | 1013.5 |
| 20260507111537 | 41 | 0 | 0.0 | 3.5 | 0.00 | 0.00 | 0.00 | 82 | 1013.4 |
| 20260507110042 | 42 | 0 | 0.9 | 2.6 | 0.00 | 0.00 | 0.00 | 80 | 1013.3 |